Wetbulb
52.56 48.66 47.46 45.34 37.80 34.37 31.48 36.89 38.36 40.53 37.73 43.57 45.98 45.14 46.69 48.30 48.44 43.02 57.61 61.52 66.87 67.75 68.30 68.87 69.78 69.78 69.02 68.47 68.07 67.96 67.90 67.67 67.78 67.95 68.19 68.41 68.78 68.81 69.40 69.77 69.80 69.82 69.51 68.68 68.28 67.85 67.36 66.71 66.48
49.93 48.63 44.98 39.32 32.27 27.41 28.98 34.19 38.35 40.91 41.76 42.36 45.41 45.91 44.54 46.44 53.36 55.01 60.18 65.76 67.32 67.50 67.68 67.43 68.22 68.53 68.16 67.61 67.32 67.59 66.93 66.73 66.66 66.75 66.42 66.80 67.40 67.84 67.97 67.96 67.79 67.68 67.40 66.93 65.86 65.16 64.46 63.96 63.83
46.60 47.61 41.01 37.12 30.12 27.05 30.04 36.13 38.05 41.97 43.74 43.31 42.52 44.11 45.68 47.71 52.53 57.53 60.21 65.57 65.73 65.57 66.09 66.57 67.74 68.05 67.51 67.02 66.65 66.42 65.65 65.60 65.64 65.40 64.90 64.96 65.10 65.08 65.06 65.10 65.08 64.80 64.17 63.60 62.51 61.62 61.09 60.75 60.73
44.81 42.77 39.59 33.35 30.92 33.54 34.25 35.10 37.56 39.57 41.69 42.93 42.72 40.99 43.53 49.27 54.58 56.63 63.49 64.08 63.84 64.08 65.32 66.41 67.37 67.34 66.70 66.23 65.94 65.31 64.96 64.78 65.02 64.46 64.07 63.75 63.54 63.10 62.75 62.61 62.62 62.27 61.86 61.32 60.40 59.79 59.23 59.11 58.90
41.95 38.36 31.91 29.49 32.22 35.82 37.63 38.83 37.95 40.00 39.89 41.77 43.55 40.36 42.59 51.17 56.04 61.29 61.17 62.45 62.36 62.99 64.30 65.13 66.57 66.78 66.00 65.46 65.09 64.53 64.14 63.84 63.75 63.39 62.73 62.64 62.07 61.42 61.23 61.11 60.73 60.34 59.61 58.87 58.15 57.64 57.32 57.05 57.03
37.65 37.17 29.52 29.29 31.20 35.78 38.80 39.81 38.99 39.57 40.36 40.27 41.47 41.50 41.82 53.02 58.15 59.52 59.92 60.17 62.24 62.17 63.22 63.97 63.86 64.62 64.92 64.69 64.38 63.65 63.25 62.63 62.47 61.86 61.45 61.25 60.70 60.11 59.83 59.47 58.93 58.12 57.35 56.99 56.56 56.11 55.56 55.45 55.39
35.36 32.45 29.57 29.11 31.95 34.25 38.79 40.51 38.66 40.72 39.24 41.60 43.68 40.11 41.44 51.07 57.68 58.07 58.16 58.23 59.35 60.25 60.89 60.85 61.21 61.93 62.57 63.04 63.12 62.90 62.12 61.33 60.81 60.28 59.84 59.15 58.65 58.10 57.51 57.00 56.74 56.41 55.69 55.21 54.80 54.39 54.26 54.76 55.17
37.32 34.67 29.85 31.88 34.61 35.01 39.64 39.53 40.48 39.84 40.00 41.41 44.71 40.11 39.86 50.01 55.92 56.18 56.82 56.76 56.91 57.02 57.73 57.96 57.55 57.63 57.93 58.01 60.40 60.62 60.55 60.00 58.83 57.66 56.93 56.27 55.48 54.50 53.74 53.15 53.51 53.45 53.47 53.57 53.12 53.14 53.25 53.41 53.57
38.00 30.56 29.88 33.14 33.95 38.06 39.78 37.91 39.09 39.63 39.15 39.03 41.20 41.68 43.63 53.19 55.31 55.48 54.05 53.76 54.64 55.15 55.29 56.30 54.62 53.21 53.23 53.92 55.15 57.20 58.13 57.47 56.03 54.59 54.84 51.15 46.20 45.51 46.18 50.57 51.42 51.85 51.49 51.56 52.96 53.00 52.08 50.83 49.84
35.22 29.77 32.55 37.68 37.98 38.36 39.88 38.72 38.41 37.14 37.89 37.13 40.36 46.31 46.46 54.47 54.39 53.51 53.84 53.68 53.47 52.91 52.75 54.18 52.32 51.20 51.31 53.27 50.15 49.41 50.30 47.63 46.53 46.84 46.77 44.93 43.66 43.15 44.93 48.11 49.84 49.59 50.40 51.00 50.83 50.79 49.31 46.35 42.49
36.07 33.82 38.26 37.98 40.80 40.60 39.41 38.31 39.32 35.74 35.32 38.85 40.71 45.56 49.62 53.07 53.75 52.87 53.74 54.12 53.59 53.48 53.26 53.14 52.00 50.30 49.33 48.87 46.90 45.63 44.24 43.60 43.22 43.05 43.93 42.84 42.65 43.23 42.23 41.72 41.43 41.44 44.61 41.79 42.77 41.94 41.93 41.44 41.24
33.73 37.42 39.56 40.26 41.32 39.21 38.26 39.37 37.25 37.23 39.49 41.38 41.87 48.44 50.11 51.72 52.47 52.87 52.92 53.24 52.52 52.11 52.43 52.10 51.66 50.06 47.50 47.73 46.03 43.62 42.84 42.18 41.77 42.32 42.82 42.04 41.24 40.64 40.53 40.09 39.91 40.02 39.97 39.30 39.37 39.48 40.39 40.33 41.07
35.34 36.22 39.16 40.55 39.90 39.53 40.35 37.98 38.09 37.23 41.48 40.88 41.12 47.73 49.38 50.82 51.72 52.78 53.32 52.66 52.25 51.56 51.45 50.69 50.17 49.65 47.34 46.69 44.91 42.68 42.07 42.31 41.92 41.89 42.90 42.19 41.09 39.86 40.23 39.43 39.24 38.77 38.96 38.58 38.09 38.55 39.07 39.21 40.24
38.17 38.69 39.50 40.07 39.70 39.45 38.60 39.65 37.35 37.92 41.22 39.16 40.56 44.78 47.53 48.71 50.07 50.09 49.99 50.94 51.87 52.20 50.71 50.80 48.61 49.29 46.92 45.02 44.01 42.53 41.89 41.76 41.44 40.98 41.38 42.03 41.18 39.56 39.31 38.90 38.76 38.44 38.15 37.95 37.93 37.77 37.71 37.97 38.95
39.13 35.57 38.93 39.18 39.51 38.20 38.85 35.50 36.64 39.97 41.52 39.25 38.46 39.39 44.15 47.12 48.31 49.15 51.30 51.56 52.48 52.75 51.46 49.84 48.12 46.95 45.73 44.54 43.34 42.00 41.60 41.90 40.69 40.67 41.04 41.45 41.02 38.98 38.00 37.94 37.42 37.85 37.92 37.98 37.48 37.62 37.45 37.26 38.82
34.14 33.05 30.23 38.02 38.12 39.26 37.44 32.16 38.53 41.45 39.12 39.14 38.34 37.51 39.91 43.46 46.37 49.28 50.83 51.71 51.86 52.24 51.25 49.52 49.16 46.20 44.12 43.45 42.28 42.32 41.33 40.50 40.07 40.09 39.93 40.95 40.78 39.23 37.59 37.43 37.31 37.49 37.39 37.02 36.42 36.09 36.10 36.09 36.29
30.30 26.39 27.28 32.14 38.72 38.67 36.98 34.09 39.94 41.74 38.55 37.54 38.95 39.40 38.08 40.66 42.42 46.33 48.17 49.43 49.63 51.12 50.66 48.08 47.16 45.00 43.80 42.57 42.43 41.08 40.47 39.82 39.47 39.04 39.10 40.20 40.36 39.63 37.84 37.31 37.05 37.31 36.64 36.02 36.34 35.76 35.46 34.69 35.15
26.19 24.20 29.26 29.06 35.45 37.34 36.22 34.82 36.72 39.41 40.19 39.84 37.26 36.30 36.72 37.92 41.05 43.87 44.56 45.78 48.63 49.49 49.68 48.38 46.07 44.70 43.53 42.20 40.38 39.11 38.87 38.66 38.42 38.15 38.71 39.73 39.19 38.98 37.24 36.92 37.03 37.05 35.80 35.10 35.14 34.39 34.76 34.64 34.73
32.34 29.04 28.92 33.08 37.37 34.90 35.06 35.32 37.22 39.39 38.16 35.45 35.57 35.71 35.63 37.44 41.22 40.38 41.03 43.61 45.03 46.46 47.13 46.77 45.19 43.12 42.49 40.61 38.67 38.11 38.16 36.83 37.00 37.47 39.28 38.60 38.52 38.54 36.90 36.01 36.07 36.03 35.06 34.55 34.69 34.36 33.88 33.91 34.77
31.09 28.97 28.46 31.92 35.49 34.49 34.48 33.48 35.28 37.03 39.07 40.11 37.08 36.29 36.05 35.98 36.24 37.64 38.51 39.18 42.74 44.50 45.77 45.10 45.08 42.74 42.52 42.29 40.28 37.90 37.42 35.59 36.75 37.29 37.50 37.75 37.84 37.85 36.73 35.67 35.28 35.13 34.35 33.86 33.57 33.80 33.21 33.78 34.50
29.45 28.33 28.73 28.64 31.75 34.18 31.16 30.49 32.66 34.96 36.44 38.75 39.30 40.76 39.14 37.05 35.86 35.83 37.05 38.19 38.70 40.54 43.35 43.56 43.85 42.80 42.36 41.22 38.68 36.87 35.73 34.96 34.49 34.81 35.07 36.45 37.06 37.15 36.45 35.08 34.53 33.85 33.64 32.79 32.70 33.15 33.22 31.67 33.27
26.95 32.55 31.83 30.07 28.87 24.32 32.22 22.75 31.83 35.65 36.21 38.64 38.96 36.87 36.83 36.68 37.27 37.76 38.03 36.95 37.51 40.51 40.71 43.62 42.82 42.34 40.95 39.86 39.47 37.30 37.75 33.04 33.49 34.07 34.59 35.20 35.75 35.59 35.84 35.30 34.10 33.20 33.13 32.45 32.61 34.36 33.06 32.62 30.99
29.12 33.16 30.79 29.64 28.67 27.49 27.27 25.32 28.00 33.31 32.80 36.27 39.31 39.07 39.69 40.58 39.30 39.32 38.52 39.15 39.35 39.58 37.96 39.21 41.35 40.99 40.21 39.72 39.13 37.57 34.66 33.93 33.49 33.42 33.55 33.48 33.41 34.11 34.42 34.28 33.35 32.73 32.56 32.06 32.10 31.61 31.54 31.48 30.60
34.31 30.96 30.48 30.53 28.47 21.05 25.57 24.94 24.98 28.74 32.44 35.43 38.94 40.84 41.58 41.99 42.90 41.13 41.29 39.78 38.23 36.31 36.73 38.07 39.48 39.16 39.19 38.75 37.23 36.62 35.11 33.19 32.08 31.70 31.66 31.52 31.76 32.04 32.36 32.77 31.94 31.94 31.66 31.31 31.19 31.13 30.31 29.91 29.57
32.07 28.31 21.04 19.33 19.33 18.81 26.53 25.15 27.48 29.99 35.33 36.24 37.64 39.88 41.26 43.14 43.26 42.44 38.80 37.26 36.41 35.65 35.58 37.03 38.05 36.35 37.43 36.60 35.48 34.56 34.47 33.16 32.77 32.20 32.16 30.35 30.32 29.92 30.74 30.90 30.31 30.49 30.99 31.14 30.85 30.44 29.76 29.47 28.60
29.98 27.78 21.22 10.63 8.61 15.24 23.89 20.56 25.95 33.95 37.04 36.48 35.38 35.03 36.55 38.13 40.19 40.17 38.34 37.44 35.80 36.05 35.68 37.09 36.87 35.05 35.11 34.89 33.69 33.36 32.77 32.81 32.04 31.88 31.33 31.12 30.48 30.48 31.25 30.71 30.69 30.73 30.96 30.78 30.49 29.66 28.73 29.67 28.77
28.25 26.03 29.28 13.68 6.16 16.41 19.36 24.77 29.67 30.88 31.58 32.61 32.45 33.28 36.96 39.18 36.26 35.45 35.75 36.47 36.00 35.53 36.13 36.42 36.28 35.14 34.25 33.36 32.35 31.65 31.51 31.39 30.91 30.70 30.59 30.29 30.32 29.43 28.40 28.89 27.67 27.28 26.41 26.23 26.17 23.44 23.30 31.90 31.86
28.13 30.44 21.97 24.61 16.16 13.75 15.70 16.43 20.06 25.56 25.23 30.24 29.04 30.08 31.62 33.51 32.39 32.81 33.50 34.25 35.14 35.04 34.20 34.43 34.17 33.39 32.68 32.27 32.08 31.19 30.44 30.09 29.68 28.76 28.25 28.07 28.82 29.60 26.39 23.23 22.58 19.35 18.29 19.01 19.93 20.18 23.20 30.42 30.69
27.54 25.27 23.60 23.74 21.03 9.76 3.63 11.04 24.20 27.99 25.44 22.57 26.78 27.72 29.51 29.16 29.93 30.41 31.42 31.27 31.41 31.62 32.44 31.69 31.80 31.76 31.49 31.20 30.21 29.86 29.20 29.12 26.92 27.86 26.56 26.18 26.29 25.76 23.17 22.29 21.37 20.53 18.42 16.64 18.15 20.51 25.05 28.89 29.09
27.06 23.41 26.38 19.64 13.09 15.68 10.93 16.38 15.31 13.32 11.79 17.25 22.70 27.52 24.79 26.87 26.84 27.16 27.24 27.85 28.14 27.73 28.45 27.40 27.77 29.45 29.59 29.18 29.58 29.90 29.26 28.30 27.26 26.25 24.88 24.01 24.05 20.82 22.11 20.92 22.28 19.16 20.66 23.75 26.29 27.15 28.34 27.92 27.77
MSLP
1013.68 1014.10 1014.12 1014.56 1016.36 1016.66 1015.80 1013.94 1011.85 1010.64 1009.42 1008.69 1008.35 1008.54 1009.24 1009.95 1011.02 1012.24 1012.21 1012.13 1012.35 1012.79 1012.98 1013.22 1013.40 1013.79 1014.17 1014.45 1014.60 1014.62 1014.78 1015.03 1015.16 1015.33 1015.34 1015.45 1015.54 1015.54 1015.58 1015.69 1015.84 1015.98 1016.07 1016.38 1016.56 1016.73 1016.81 1016.86 1016.87
1013.78 1014.07 1014.60 1015.45 1016.80 1016.84 1015.13 1013.08 1011.53 1009.95 1009.19 1008.76 1008.54 1009.23 1009.64 1010.89 1011.19 1012.03 1012.36 1012.32 1012.26 1012.71 1013.10 1013.38 1013.60 1014.09 1014.33 1014.57 1014.75 1014.77 1014.99 1015.26 1015.32 1015.50 1015.67 1015.71 1015.88 1016.00 1016.11 1016.16 1016.22 1016.36 1016.59 1016.76 1016.93 1017.06 1017.16 1017.20 1017.15
1013.71 1014.28 1015.34 1015.77 1016.40 1015.97 1014.47 1011.94 1010.36 1009.36 1008.81 1008.89 1008.70 1009.30 1009.82 1010.54 1011.35 1011.65 1011.78 1012.10 1012.36 1012.91 1013.31 1013.68 1013.89 1014.19 1014.53 1014.78 1014.89 1014.87 1015.15 1015.32 1015.49 1015.66 1015.94 1016.12 1016.27 1016.54 1016.70 1016.80 1016.82 1016.92 1017.04 1017.17 1017.31 1017.38 1017.41 1017.45 1017.36
1013.99 1014.96 1015.87 1015.86 1015.16 1014.46 1013.15 1011.38 1010.46 1009.36 1008.79 1008.40 1008.71 1009.81 1010.31 1010.12 1010.44 1010.95 1011.71 1012.01 1012.54 1013.09 1013.33 1013.82 1014.08 1014.26 1014.46 1014.82 1014.94 1015.12 1015.34 1015.47 1015.63 1015.95 1016.18 1016.43 1016.68 1016.89 1017.06 1017.17 1017.26 1017.42 1017.56 1017.62 1017.68 1017.74 1017.77 1017.71 1017.63
1014.65 1015.56 1016.05 1015.73 1014.18 1012.96 1012.13 1011.01 1010.31 1009.89 1008.86 1008.47 1008.72 1010.02 1010.77 1010.78 1010.68 1010.87 1011.55 1012.00 1012.49 1013.15 1013.41 1013.74 1014.02 1014.14 1014.38 1014.88 1015.12 1015.35 1015.52 1015.74 1015.91 1016.10 1016.42 1016.72 1016.96 1017.12 1017.31 1017.49 1017.63 1017.83 1017.87 1017.94 1018.00 1018.07 1018.06 1018.04 1017.95
1015.09 1015.61 1016.22 1015.30 1013.77 1012.40 1011.33 1010.12 1010.16 1009.68 1008.99 1008.81 1009.23 1010.13 1010.98 1011.10 1011.34 1011.31 1011.27 1011.84 1012.33 1012.94 1013.33 1013.69 1014.00 1014.05 1014.63 1014.98 1015.23 1015.46 1015.79 1016.12 1016.33 1016.52 1016.80 1017.02 1017.14 1017.34 1017.53 1017.68 1017.87 1018.05 1018.17 1018.20 1018.23 1018.23 1018.26 1018.23 1018.19
1014.95 1015.40 1015.24 1014.29 1012.72 1012.10 1010.18 1009.46 1009.57 1009.01 1008.76 1008.65 1008.76 1010.17 1011.23 1011.45 1011.42 1011.69 1011.67 1011.84 1012.40 1012.88 1013.32 1013.75 1014.00 1014.03 1014.76 1015.10 1015.41 1015.72 1016.06 1016.37 1016.58 1016.84 1017.17 1017.42 1017.57 1017.70 1017.83 1018.00 1018.13 1018.17 1018.24 1018.32 1018.38 1018.44 1018.42 1018.42 1018.34
1014.08 1014.49 1014.47 1013.66 1012.15 1010.75 1009.60 1009.05 1008.14 1008.19 1007.92 1007.98 1007.98 1009.78 1010.89 1010.83 1011.40 1012.03 1012.54 1012.65 1012.76 1013.00 1013.25 1013.64 1014.04 1014.56 1014.90 1015.19 1015.63 1015.98 1016.21 1016.57 1017.04 1017.30 1017.62 1017.78 1018.00 1018.24 1018.33 1018.40 1018.39 1018.42 1018.50 1018.55 1018.61 1018.61 1018.63 1018.70 1018.63
1013.64 1013.95 1013.41 1012.27 1011.13 1009.47 1008.83 1008.74 1008.12 1007.60 1007.80 1008.18 1008.52 1008.76 1009.01 1009.80 1011.14 1012.12 1012.99 1013.39 1013.37 1013.42 1013.34 1013.57 1014.26 1014.94 1015.24 1015.42 1015.72 1016.13 1016.46 1016.82 1017.18 1017.60 1017.89 1018.25 1018.46 1018.49 1018.61 1018.69 1018.81 1018.84 1018.78 1018.80 1018.72 1018.71 1018.89 1018.95 1018.96
1013.38 1012.74 1011.53 1009.99 1009.80 1009.15 1008.64 1008.70 1008.30 1008.22 1008.16 1008.51 1008.81 1009.20 1009.08 1009.87 1010.95 1011.58 1012.27 1012.86 1013.28 1013.48 1013.67 1013.70 1014.41 1015.00 1015.52 1015.64 1016.00 1016.50 1016.92 1017.42 1017.62 1017.86 1018.10 1018.40 1018.56 1018.75 1018.82 1018.89 1018.87 1019.00 1019.03 1018.87 1018.94 1019.03 1019.09 1019.12 1019.17
1011.94 1010.88 1010.13 1009.41 1008.84 1009.11 1008.76 1008.32 1008.29 1008.44 1008.47 1008.10 1008.36 1009.16 1009.55 1010.15 1010.96 1011.48 1011.80 1012.05 1012.33 1013.10 1013.64 1013.92 1014.41 1014.87 1015.36 1016.13 1016.55 1016.93 1017.28 1017.69 1017.95 1018.13 1018.27 1018.48 1018.65 1018.80 1018.98 1019.15 1019.27 1019.24 1019.22 1019.30 1019.30 1019.34 1019.39 1019.31 1019.30
1011.17 1010.28 1009.79 1008.81 1008.96 1008.86 1008.93 1008.18 1008.13 1008.32 1007.89 1007.64 1007.70 1008.37 1009.41 1009.94 1010.48 1010.74 1011.28 1011.75 1012.38 1013.05 1013.30 1013.76 1014.10 1014.73 1015.07 1015.75 1016.42 1016.75 1017.16 1017.52 1017.87 1018.03 1018.25 1018.52 1018.83 1019.07 1019.25 1019.34 1019.37 1019.43 1019.47 1019.54 1019.56 1019.59 1019.49 1019.41 1019.29
1010.62 1010.20 1009.45 1008.90 1008.80 1008.67 1008.79 1008.60 1008.20 1007.95 1007.71 1007.80 1008.17 1008.82 1009.12 1009.49 1009.76 1010.29 1010.83 1011.49 1011.92 1012.53 1012.97 1013.48 1013.84 1014.36 1014.77 1015.25 1015.99 1016.58 1016.91 1017.12 1017.36 1017.71 1017.95 1018.26 1018.71 1019.04 1019.19 1019.36 1019.47 1019.54 1019.57 1019.73 1019.80 1019.73 1019.72 1019.67 1019.51
1009.87 1009.74 1009.50 1009.15 1008.63 1008.70 1008.73 1008.31 1008.45 1007.56 1007.30 1007.88 1008.44 1008.73 1008.89 1009.14 1009.22 1010.18 1010.62 1010.91 1011.19 1011.52 1012.04 1012.77 1013.56 1013.99 1014.47 1015.06 1015.48 1015.96 1016.48 1016.98 1017.36 1017.59 1017.76 1018.01 1018.33 1018.69 1019.10 1019.39 1019.53 1019.68 1019.74 1019.83 1019.85 1019.94 1019.90 1019.77 1019.68
1009.76 1009.73 1009.26 1008.56 1008.47 1008.39 1008.55 1007.74 1007.02 1007.30 1007.02 1007.72 1008.10 1008.33 1008.49 1008.44 1008.93 1008.94 1008.87 1009.59 1010.05 1010.45 1011.16 1011.80 1012.76 1013.44 1014.10 1014.65 1015.17 1015.72 1016.14 1016.62 1017.27 1017.66 1017.78 1017.95 1018.23 1018.56 1018.94 1019.31 1019.60 1019.69 1019.76 1019.75 1019.81 1019.82 1019.90 1019.94 1019.72
1010.17 1009.64 1008.76 1007.85 1008.29 1007.94 1008.40 1005.49 1006.13 1006.57 1006.84 1006.94 1007.45 1007.53 1007.76 1007.74 1007.71 1007.86 1008.20 1008.78 1009.41 1010.19 1010.79 1011.65 1012.26 1012.90 1013.46 1014.15 1014.77 1015.31 1015.92 1016.43 1016.84 1017.44 1017.92 1018.04 1018.25 1018.56 1018.93 1019.10 1019.35 1019.52 1019.63 1019.75 1019.88 1019.99 1020.02 1020.02 1019.93
1010.07 1008.69 1008.10 1008.18 1007.59 1007.74 1007.39 1005.40 1005.82 1005.99 1006.38 1006.45 1006.68 1006.93 1006.78 1007.02 1007.29 1007.26 1007.50 1007.76 1008.52 1009.13 1010.04 1010.96 1011.66 1012.40 1013.05 1013.68 1014.30 1015.02 1015.71 1016.23 1016.65 1017.07 1017.51 1017.90 1018.15 1018.37 1018.73 1019.03 1019.22 1019.34 1019.67 1019.94 1020.03 1020.08 1020.16 1020.15 1019.93
1009.34 1009.27 1008.54 1007.56 1006.82 1006.86 1006.43 1004.80 1005.53 1005.31 1005.61 1005.68 1005.92 1006.34 1006.19 1006.22 1006.20 1006.23 1006.76 1007.24 1007.90 1008.60 1009.16 1010.00 1010.93 1011.77 1012.76 1013.62 1014.34 1015.04 1015.59 1016.11 1016.54 1016.74 1017.14 1017.56 1018.02 1018.36 1018.71 1019.01 1019.19 1019.36 1019.65 1019.87 1020.00 1020.19 1020.21 1020.16 1019.97
1008.44 1008.71 1008.30 1007.33 1007.05 1006.72 1005.74 1004.57 1005.00 1005.10 1005.31 1005.53 1005.56 1005.71 1005.68 1005.13 1005.07 1005.70 1006.38 1006.92 1007.55 1008.14 1008.72 1009.36 1010.26 1011.23 1012.08 1013.36 1014.30 1015.04 1015.43 1015.87 1016.25 1016.69 1016.68 1017.04 1017.56 1018.04 1018.48 1018.88 1019.08 1019.34 1019.66 1019.90 1020.04 1020.14 1020.11 1020.11 1019.90
1008.21 1008.19 1007.70 1007.45 1007.19 1006.87 1005.69 1004.34 1004.91 1004.55 1004.16 1004.42 1004.88 1004.90 1005.21 1004.98 1005.06 1005.35 1005.86 1006.59 1006.85 1007.25 1007.92 1008.73 1009.34 1010.23 1011.16 1011.99 1013.08 1014.16 1014.94 1015.68 1015.90 1016.24 1016.68 1016.83 1017.23 1017.75 1018.19 1018.62 1018.98 1019.12 1019.52 1019.77 1019.99 1019.98 1020.17 1020.19 1020.07
1007.25 1007.39 1007.13 1007.22 1007.00 1006.59 1006.38 1004.82 1004.65 1004.36 1003.91 1003.84 1003.68 1003.60 1004.08 1004.44 1004.84 1005.15 1005.72 1006.00 1006.62 1006.98 1007.29 1007.87 1008.66 1009.50 1010.47 1011.53 1012.77 1013.84 1015.08 1015.73 1016.23 1016.27 1016.42 1016.71 1016.96 1017.44 1017.88 1018.51 1019.00 1019.23 1019.41 1019.68 1019.75 1019.84 1019.96 1020.18 1020.16
1006.20 1006.47 1006.73 1007.56 1007.73 1006.62 1006.45 1004.27 1003.92 1003.43 1003.54 1003.22 1002.47 1003.02 1003.16 1003.34 1003.78 1004.17 1004.62 1005.42 1005.77 1006.06 1006.83 1007.50 1008.37 1009.22 1010.24 1011.07 1011.95 1012.75 1013.59 1014.93 1015.30 1015.68 1016.16 1016.55 1016.95 1017.37 1017.77 1018.28 1018.82 1019.30 1019.46 1019.53 1019.62 1019.68 1019.97 1020.16 1020.37
1005.24 1005.84 1006.63 1007.30 1007.38 1007.30 1006.76 1005.64 1003.04 1003.29 1002.92 1001.97 1001.25 1001.82 1001.75 1001.61 1001.96 1002.58 1003.34 1003.48 1003.73 1005.05 1005.98 1006.92 1008.01 1008.99 1009.77 1010.57 1011.32 1012.32 1013.30 1013.98 1014.70 1015.53 1016.12 1016.56 1017.02 1017.25 1017.62 1018.11 1018.56 1019.11 1019.50 1019.44 1019.41 1019.65 1019.82 1020.05 1020.20
1004.64 1005.95 1006.50 1007.03 1007.15 1005.99 1005.24 1005.63 1001.60 1002.64 1001.20 1001.28 1000.85 1000.61 1000.55 1000.42 1000.41 1001.03 1001.37 1002.66 1003.85 1004.89 1005.77 1006.56 1007.37 1008.44 1009.29 1010.14 1011.00 1011.80 1012.74 1013.54 1014.32 1015.21 1015.98 1016.57 1016.98 1017.34 1017.59 1017.83 1018.30 1018.64 1019.20 1019.41 1019.41 1019.60 1019.87 1020.00 1020.11
1004.80 1005.52 1005.84 1006.24 1006.07 1004.62 1004.34 1004.78 1001.77 1000.92 1000.58 1000.71 1000.43 999.78 999.65 999.75 1000.08 1000.42 1001.35 1002.31 1003.48 1004.47 1005.49 1006.47 1007.38 1008.34 1009.11 1009.94 1010.79 1011.55 1012.40 1013.16 1013.76 1014.51 1015.32 1016.19 1016.91 1017.20 1017.37 1017.72 1017.97 1018.52 1018.71 1019.04 1019.35 1019.54 1019.81 1019.99 1020.24
1003.86 1003.87 1004.09 1005.10 1005.34 1005.01 1004.61 1003.50 1001.43 1000.88 1000.69 1000.36 1000.40 999.96 1000.02 999.75 999.73 1000.02 1000.70 1001.73 1002.91 1003.92 1004.88 1006.01 1007.28 1008.20 1008.91 1009.68 1010.74 1011.56 1012.26 1013.09 1013.66 1014.18 1014.75 1015.47 1016.23 1016.61 1016.90 1017.36 1017.58 1018.17 1018.47 1018.80 1019.24 1019.43 1019.47 1019.74 1019.98
1003.28 1003.20 1003.58 1005.11 1005.20 1005.43 1004.62 1003.62 1002.17 1001.23 1001.22 1000.69 1000.24 1000.47 1000.01 999.86 1000.03 1000.27 1000.96 1001.78 1002.81 1003.84 1004.67 1005.53 1006.78 1008.05 1009.00 1009.73 1010.63 1011.67 1012.41 1013.08 1013.74 1014.34 1014.70 1015.22 1015.85 1016.54 1016.74 1017.11 1017.55 1018.13 1018.53 1018.75 1019.21 1019.42 1019.33 1019.24 1019.85
1002.62 1002.75 1003.96 1004.26 1004.82 1005.16 1004.93 1004.21 1003.53 1002.11 1002.29 1001.59 1001.17 1001.11 1000.78 1000.63 1000.83 1001.17 1001.89 1002.66 1003.41 1004.16 1005.10 1006.20 1007.08 1007.90 1008.80 1010.12 1010.92 1011.73 1012.38 1013.16 1013.77 1014.36 1014.89 1015.31 1015.69 1016.42 1016.96 1017.33 1017.82 1018.36 1018.88 1019.13 1019.33 1019.29 1019.26 1019.37 1019.71
1002.94 1003.08 1003.62 1004.45 1004.90 1005.49 1006.00 1004.48 1003.24 1002.61 1002.43 1003.07 1002.34 1001.99 1001.76 1001.76 1002.18 1002.63 1003.08 1003.91 1004.46 1005.02 1005.94 1006.83 1007.77 1008.65 1009.49 1010.14 1011.15 1011.99 1012.68 1013.21 1013.96 1014.40 1014.87 1015.29 1015.72 1016.42 1017.03 1017.32 1017.76 1018.16 1018.46 1018.89 1019.04 1019.03 1019.09 1019.23 1019.60
1001.94 1002.19 1002.73 1003.65 1004.32 1004.86 1004.73 1003.13 1002.68 1003.21 1003.60 1004.05 1003.80 1002.90 1002.78 1002.91 1003.25 1003.70 1004.19 1005.01 1005.59 1006.28 1007.09 1007.64 1008.73 1009.24 1010.14 1010.83 1011.30 1011.94 1012.75 1013.41 1014.21 1014.60 1014.96 1015.24 1015.77 1016.44 1016.84 1017.22 1017.46 1017.80 1018.17 1018.46 1018.59 1018.77 1018.77 1019.13 1019.12
Wind_Speed
3 3 1 6 4 5 4 9 4 7 2 3 5 4 7 5 3 5 3 7 10 11 9 12 17 17 17 16 15 16 17 16 16 15 15 15 13 13 13 15 15 15 15 13 12 11 11 10 10
2 1 5 3 5 2 7 6 10 9 4 2 7 5 4 2 3 6 6 7 13 12 10 11 16 17 17 16 16 17 17 16 16 16 15 15 15 14 13 13 13 12 12 11 10 10 10 10 10
2 2 5 5 5 7 6 7 10 6 5 5 4 6 9 8 2 12 5 13 13 11 10 10 16 18 17 17 16 17 16 16 16 16 15 15 15 14 14 14 13 13 12 11 10 10 10 10 10
3 5 4 3 10 8 7 2 3 2 3 1 4 5 2 3 11 9 13 15 13 11 11 12 15 17 18 16 16 16 16 16 17 16 15 15 15 14 14 13 13 12 11 10 10 10 10 11 11
4 3 2 4 9 7 7 6 2 6 3 5 5 5 4 6 5 16 14 13 14 11 10 11 14 16 17 16 16 16 16 16 16 16 15 15 14 14 13 13 12 11 10 10 10 10 11 11 11
2 3 1 9 8 5 8 9 5 6 5 2 5 9 5 2 12 13 13 12 14 12 10 10 10 14 15 15 16 16 16 15 15 15 15 14 14 14 13 12 12 10 9 9 9 10 10 10 10
6 4 6 5 6 6 11 7 6 13 7 8 8 9 1 4 9 8 10 11 11 10 10 7 7 12 11 13 13 15 15 15 15 15 14 14 13 13 12 11 10 9 9 9 9 10 9 9 10
6 5 4 7 11 15 7 4 6 10 10 1 8 7 6 9 9 8 7 8 9 10 10 9 7 7 6 7 11 12 14 14 14 14 13 13 13 12 11 9 9 9 8 8 8 8 8 8 10
4 3 8 10 10 11 3 3 3 2 4 2 1 7 4 16 13 12 6 4 5 6 8 10 8 7 6 7 8 10 13 13 14 12 12 8 4 6 7 8 8 8 6 6 7 8 8 9 9
6 7 13 8 10 7 5 5 4 2 4 2 1 2 5 20 17 18 17 14 11 10 8 10 9 8 6 6 7 6 6 4 4 5 5 4 5 5 5 5 6 6 6 6 7 7 8 7 4
8 16 18 6 7 6 3 4 6 3 4 8 10 7 12 13 15 14 16 16 16 12 9 10 11 8 8 5 4 3 3 3 3 5 5 5 4 3 3 2 2 2 5 3 4 4 3 5 3
7 13 18 9 8 3 5 3 3 7 9 6 10 17 15 18 18 18 16 15 14 13 13 11 12 11 8 7 6 6 5 4 4 5 6 4 3 4 3 2 3 2 2 3 3 2 3 4 4
14 2 8 17 10 6 4 7 8 7 11 8 5 9 18 18 19 15 11 10 12 14 13 13 12 12 10 10 7 6 5 5 5 5 6 5 4 4 3 3 2 2 2 2 2 2 3 4 5
4 17 18 10 11 7 9 14 8 8 13 6 10 14 15 17 19 10 10 13 16 16 16 15 14 13 11 8 9 7 5 5 4 4 5 6 5 5 4 3 3 2 2 1 1 1 2 3 3
8 14 16 18 9 8 7 16 20 13 11 9 11 11 14 18 13 19 22 18 19 16 16 18 16 13 13 11 9 6 6 6 5 4 6 6 5 5 5 4 3 3 1 2 2 2 2 3 3
4 4 18 13 7 7 11 22 10 15 12 16 12 11 13 18 19 20 17 18 15 14 16 14 13 14 13 11 8 7 6 6 5 5 4 6 6 6 5 4 4 3 2 2 1 1 2 2 3
8 11 9 10 7 8 16 16 16 12 10 14 14 14 13 13 12 16 17 18 15 17 17 16 15 15 13 11 8 7 8 6 5 5 5 6 6 6 5 4 4 4 2 1 1 1 1 1 3
18 4 6 7 10 16 18 22 7 8 16 19 13 10 10 13 19 19 16 13 15 16 17 18 14 15 13 8 6 4 5 5 5 5 5 7 5 6 5 4 4 4 3 2 1 0 1 2 3
21 13 19 13 13 5 17 23 17 14 9 8 9 12 11 13 14 9 10 13 12 13 17 18 17 14 12 8 7 6 8 4 4 4 7 7 6 6 6 4 4 3 3 3 1 1 1 2 2
19 22 22 7 8 14 18 23 7 11 16 17 14 12 11 8 8 10 10 10 16 18 17 17 18 17 14 11 8 5 5 2 3 4 5 7 7 7 6 5 4 5 4 3 1 1 0 1 2
23 22 22 15 3 13 3 18 13 6 7 8 12 17 10 11 12 10 11 15 10 15 18 17 17 18 15 13 8 5 5 4 2 3 4 4 7 7 6 6 4 4 3 3 2 2 3 2 1
24 21 23 14 8 16 8 18 15 14 16 17 18 10 10 11 9 11 17 14 16 17 13 15 15 16 13 15 13 13 12 6 4 4 3 5 6 6 6 6 5 4 3 4 3 2 2 3 3
21 20 18 14 17 15 10 10 11 8 16 21 18 15 17 18 18 19 19 22 22 17 15 13 14 14 14 14 14 11 8 5 4 4 7 5 5 6 6 6 6 5 3 3 4 3 3 2 2
19 6 16 16 12 18 23 17 19 13 19 12 19 18 20 21 21 18 20 14 13 11 13 13 16 14 14 13 12 14 13 9 6 5 6 4 4 4 5 6 5 5 4 4 3 4 4 4 3
14 14 10 13 15 14 13 14 22 10 18 20 20 21 18 19 19 17 16 16 14 15 13 11 14 12 14 13 12 11 11 10 11 9 8 7 4 3 6 6 6 4 4 5 4 4 4 4 2
12 16 10 13 4 6 5 10 14 15 22 17 13 13 7 9 10 14 16 16 16 17 15 15 14 13 13 13 10 8 8 6 5 7 6 6 5 5 6 6 5 5 5 5 5 3 4 4 3
7 14 10 3 3 3 5 6 9 6 11 13 15 8 18 17 9 8 10 13 15 15 16 17 16 14 12 11 9 7 7 7 6 6 5 4 5 3 5 6 6 5 4 4 4 3 3 4 2
8 5 2 4 12 14 5 3 7 9 11 13 12 10 9 6 5 7 9 10 10 12 11 12 12 14 12 10 8 8 7 6 5 5 6 6 5 5 5 5 5 5 4 3 3 2 2 3 2
7 7 3 3 6 4 3 8 11 16 5 7 10 8 7 4 6 6 7 7 9 10 11 10 11 12 10 10 7 8 6 6 5 5 5 6 5 5 6 6 6 6 5 4 4 4 3 4 5
5 8 11 6 5 3 5 8 1 0 4 3 11 8 2 4 6 8 9 9 9 9 9 9 7 9 7 6 7 7 7 7 6 5 5 5 5 3 5 5 5 4 4 4 5 4 4 7 7
Wind_Direction
4 331 65 49 62 63 255 254 255 290 289 225 121 140 139 73 163 198 307 144 138 136 136 132 126 125 133 131 130 125 122 119 116 113 108 102 96 96 94 88 87 83 80 74 67 60 53 51 48
33 123 38 100 101 176 258 246 253 229 244 186 111 113 77 122 122 135 114 160 128 129 133 132 129 139 135 137 135 128 124 123 119 113 108 104 103 104 98 89 84 85 85 83 77 69 62 56 49
58 27 97 140 157 201 227 229 239 223 203 238 110 42 151 169 151 151 161 136 121 124 129 131 135 141 139 139 137 130 131 128 123 117 113 109 105 103 101 99 95 90 87 80 69 59 51 45 40
107 11 22 131 217 244 211 292 356 163 276 227 127 116 346 225 154 162 146 127 124 127 129 139 147 146 137 143 139 137 135 130 125 123 115 113 110 105 101 96 91 88 81 74 65 55 45 36 30
35 58 162 234 244 233 236 240 231 269 229 204 147 182 165 316 125 136 139 134 131 138 140 148 157 148 134 153 146 141 135 132 129 124 122 119 115 109 105 101 95 89 82 71 60 47 38 31 24
72 107 117 231 251 259 266 223 227 217 246 212 105 135 194 121 145 151 139 139 138 143 148 152 154 138 150 159 150 142 139 135 130 127 126 124 118 114 110 107 103 93 81 68 55 43 32 26 23
152 121 221 233 246 283 238 165 211 229 206 227 151 140 252 192 172 144 142 133 139 145 142 141 147 130 161 161 147 144 142 139 135 130 128 122 119 114 109 104 98 91 79 64 50 39 32 26 17
148 134 211 232 236 261 253 216 217 176 220 86 149 183 205 207 165 120 131 141 148 152 150 136 118 114 122 128 132 137 137 137 135 130 127 124 120 109 99 87 93 87 78 69 61 47 36 30 25
147 138 215 227 193 227 226 348 299 283 144 34 32 152 203 154 137 135 135 141 155 164 156 139 131 128 127 122 126 124 134 139 137 135 129 112 107 109 108 111 91 83 94 74 56 53 47 27 17
175 185 216 210 216 236 169 198 273 241 189 188 15 2 126 152 162 161 173 177 177 175 170 152 146 143 136 133 119 116 113 117 130 138 133 133 136 138 123 120 109 94 67 67 54 45 33 30 12
203 226 224 234 205 211 220 305 180 193 251 214 197 164 148 158 176 175 183 185 182 170 171 167 156 150 141 131 123 125 133 140 150 157 150 150 131 117 124 112 74 83 66 51 43 30 27 15 9
247 223 230 240 235 219 241 211 231 187 230 266 195 165 159 172 184 188 184 182 175 178 178 171 163 165 157 150 163 164 160 165 165 171 161 147 139 140 138 131 125 100 72 70 45 27 2 2 352
248 271 240 242 240 221 242 227 224 226 253 242 115 163 177 182 192 197 189 175 165 179 181 179 171 171 169 163 166 171 177 170 168 166 167 152 148 149 144 143 131 126 111 85 39 23 5 348 343
239 223 249 267 254 237 243 262 170 234 241 217 162 190 191 192 197 177 184 185 186 178 180 179 178 177 167 170 171 174 163 168 162 163 163 160 155 153 155 153 142 129 120 102 72 21 0 340 335
235 261 263 242 245 233 203 251 237 229 230 209 198 203 204 207 186 196 199 191 191 195 176 181 178 168 173 174 172 166 170 157 158 170 166 156 154 160 150 151 138 150 123 88 47 20 14 359 341
260 231 239 242 189 223 177 246 229 223 225 235 219 222 208 212 200 207 196 202 193 185 188 179 182 175 169 171 165 163 163 159 156 158 161 159 150 149 150 145 146 150 112 95 63 27 350 351 334
217 249 229 251 208 203 200 255 230 237 228 237 236 233 221 221 220 206 203 196 186 185 182 180 180 178 174 170 161 154 160 160 160 154 161 169 160 158 149 150 154 147 123 85 31 31 67 311 312
224 211 239 191 200 200 228 243 244 233 230 234 229 231 222 211 215 211 200 192 186 185 181 177 176 175 170 157 139 131 147 158 163 166 168 164 160 157 150 154 157 151 135 122 99 88 298 257 287
229 228 241 241 239 230 231 250 235 235 248 233 240 233 226 222 225 201 188 189 172 175 174 178 172 173 160 159 158 164 181 167 163 176 163 161 163 162 158 163 153 146 145 170 181 205 55 326 332
222 231 246 270 226 228 249 256 210 216 235 228 227 235 231 225 201 194 182 180 183 179 179 177 179 170 173 171 164 151 154 163 161 158 169 165 161 163 158 160 165 161 151 167 177 158 71 265 11
222 221 231 222 190 248 286 271 238 229 249 255 240 242 233 215 214 194 189 194 180 178 182 180 176 173 172 160 139 105 84 72 114 176 165 177 160 163 152 161 162 163 156 183 184 168 166 193 308
224 215 229 226 218 242 159 263 247 238 237 242 236 221 223 210 212 204 196 191 195 198 176 174 171 171 167 162 166 165 177 166 193 154 149 164 164 161 157 161 165 176 173 177 188 166 184 150 209
226 219 225 224 230 242 221 250 247 205 234 237 238 222 220 222 205 209 203 203 201 182 175 163 162 169 167 169 169 166 165 151 141 137 156 163 168 163 165 166 167 173 190 190 181 166 156 157 153
221 152 218 225 224 228 224 215 254 221 227 239 249 241 227 227 227 216 214 202 192 170 169 165 163 166 164 166 165 170 169 156 144 150 161 167 166 170 172 168 170 176 186 191 186 171 172 157 134
211 180 212 215 218 238 211 202 238 203 230 230 236 245 237 233 231 225 200 189 176 173 165 157 162 162 165 164 164 163 165 161 166 166 167 161 158 178 191 171 167 175 184 190 180 170 170 165 148
210 197 194 217 204 229 149 218 242 222 245 250 244 248 258 247 233 212 201 188 178 167 160 160 164 159 159 158 157 151 146 158 160 161 154 168 175 179 170 175 169 182 183 189 194 177 168 163 167
183 207 220 83 347 114 184 276 305 213 235 253 246 249 248 239 226 200 176 176 168 162 163 159 160 157 153 147 136 140 143 144 153 157 149 159 150 165 154 157 151 147 135 153 161 173 166 130 179
217 158 225 243 221 232 235 245 227 269 225 251 278 251 258 252 168 141 141 148 151 145 136 139 146 148 141 138 143 146 145 140 139 139 151 150 134 128 139 138 142 140 140 134 134 161 148 148 179
175 204 198 162 157 175 199 246 205 235 230 257 272 292 256 160 133 124 117 109 118 116 127 125 129 133 137 139 133 136 139 134 135 142 143 148 134 154 162 163 162 167 165 180 168 184 180 208 220
199 199 181 181 221 214 169 266 297 325 228 249 281 283 175 115 113 113 107 107 103 101 105 106 110 119 120 122 128 136 134 136 148 152 159 154 156 157 167 172 170 173 178 184 192 202 203 218 218